KF7MJQ-10 Weather Reports


Display with metric or nautical units.
time (UTC)temp
F
wind
direction
speed
MPH
gust
MPH
rain 1hr
in
rain 24hr
in
rain mn
in
humidity
%
barometer
mb
20260508193507 58 217 2.0 6.0 0.00 0.00 0.00 49 1021.4
20260508193005 58 217 1.0 8.0 0.00 0.00 0.00 49 1021.3
20260508192505 58 191 0.0 4.0 0.00 0.00 0.00 48 1021.3
20260508192003 57 217 1.0 4.0 0.00 0.00 0.00 49 1021.2
20260508191501 57 252 0.0 8.0 0.00 0.00 0.00 48 1021.2
20260508191059 57 232 1.0 8.0 0.00 0.00 0.00 48 1021.2
20260508190542 57 255 0.0 4.0 0.00 0.00 0.00 47 1021.1
20260508190040 57 235 0.0 5.0 0.00 0.00 0.00 48 1021.1
20260508185538 56 229 0.0 3.0 0.00 0.00 0.00 46 1021.1
20260508185036 56 241 0.0 4.0 0.00 0.00 0.00 47 1021.0
20260508184539 56 239 1.0 4.0 0.00 0.00 0.00 47 1021.1
20260508184034 56 191 0.0 3.0 0.00 0.00 0.00 48 1021.1
20260508183515 56 281 0.0 4.0 0.00 0.00 0.00 48 1021.1
20260508183014 56 241 0.0 3.0 0.00 0.00 0.00 49 1021.1
20260508182513 56 231 0.0 3.0 0.00 0.00 0.00 49 1021.0
20260508182014 56 235 1.0 4.0 0.00 0.00 0.00 49 1021.0
20260508181520 57 243 1.0 5.0 0.00 0.00 0.00 47 1021.0
20260508181008 57 228 0.0 4.0 0.00 0.00 0.00 46 1021.0
20260508180552 57 37 0.0 4.0 0.00 0.00 0.00 44 1020.9
20260508180059 56 58 0.0 2.0 0.00 0.00 0.00 46 1020.9
20260508175548 56 257 0.0 2.0 0.00 0.00 0.00 40 1020.9
20260508175047 56 233 0.0 5.0 0.00 0.00 0.00 44 1020.9
20260508174601 55 245 0.0 4.0 0.00 0.00 0.00 44 1020.9
20260508174044 55 240 0.0 5.0 0.00 0.00 0.00 44 1020.8
20260508173524 56 227 0.0 3.0 0.00 0.00 0.00 42 1020.8
20260508173022 56 281 0.0 1.0 0.00 0.00 0.00 40 1020.7
20260508172521 56 269 0.0 2.0 0.00 0.00 0.00 36 1020.8
20260508172019 55 293 0.0 2.0 0.00 0.00 0.00 40 1020.7
20260508171519 55 242 0.0 2.0 0.00 0.00 0.00 41 1020.7
20260508171019 55 236 0.0 2.0 0.00 0.00 0.00 39 1020.6
20260508170505 55 236 0.0 4.0 0.00 0.00 0.00 36 1020.5
20260508170001 55 237 1.0 4.0 0.00 0.00 0.00 37 1020.5
20260508165559 55 207 0.0 2.0 0.00 0.00 0.00 35 1020.5
20260508165058 54 235 0.0 1.0 0.00 0.00 0.00 37 1020.5
20260508164603 54 223 0.0 2.0 0.00 0.00 0.00 41 1020.5
20260508164056 54 248 0.0 2.0 0.00 0.00 0.00 40 1020.4
20260508163554 54 233 1.0 2.0 0.00 0.00 0.00 40 1020.3
20260508163057 53 263 0.0 1.0 0.00 0.00 0.00 42 1020.4
20260508162552 53 238 0.0 2.0 0.00 0.00 0.00 43 1020.4
20260508162049 53 260 0.0 1.0 0.00 0.00 0.00 42 1020.4
20260508161556 53 239 0.0 1.0 0.00 0.00 0.00 43 1020.3
20260508161047 53 218 0.0 1.0 0.00 0.00 0.00 43 1020.2
20260508160549 53 278 0.0 1.0 0.00 0.00 0.00 44 1020.2
20260508160044 53 238 0.0 1.0 0.00 0.00 0.00 44 1020.1
20260508155544 53 242 0.0 3.0 0.00 0.00 0.00 44 1020.1
20260508155043 53 181 0.0 3.0 0.00 0.00 0.00 42 1020.1
20260508154542 53 228 0.0 3.0 0.00 0.00 0.00 43 1020.0
20260508154039 53 217 1.0 3.0 0.00 0.00 0.00 43 1020.1
20260508153542 53 222 0.0 4.0 0.00 0.00 0.00 42 1020.1
20260508153040 54 240 0.0 4.0 0.00 0.00 0.00 36 1020.0
20260508152537 54 253 0.0 2.0 0.00 0.00 0.00 33 1020.0
20260508152035 54 257 0.0 3.0 0.00 0.00 0.00 35 1019.8
20260508151541 54 229 1.0 3.0 0.00 0.00 0.00 35 1019.6
20260508151033 54 240 0.0 2.0 0.00 0.00 0.00 29 1019.5
20260508150517 54 239 0.0 2.0 0.00 0.00 0.00 28 1019.5
20260508150014 54 259 0.0 1.0 0.00 0.00 0.00 22 1019.4
20260508145509 0 0.0 0.0 0.00 0.00 0.00 1019.3
20260508145011 0 0.0 0.0 0.00 0.00 0.00 1019.3
20260508144506 0 0.0 0.0 0.00 0.00 0.00 1019.2
20260508144005 0 0.0 0.0 0.00 0.00 0.00 1019.2
20260508143605 0 0.0 0.0 0.00 0.00 0.00 1019.3
20260508143046 0 0.0 0.0 0.00 0.00 0.00 1019.2
20260508142544 0 0.0 0.0 0.00 0.00 0.00 1019.0
20260508142042 0 0.0 0.0 0.00 0.00 0.00 1018.9
20260508141541 0 0.0 0.0 0.00 0.00 0.00 1019.0
20260508141038 0 0.0 0.0 0.00 0.00 0.00 1019.0
20260508140537 0 0.0 0.0 0.00 0.00 0.00 1018.8
20260508140019 0 0.0 0.0 0.00 0.00 0.00 1018.8
20260508135517 0 0.0 0.0 0.00 0.00 0.00 1018.8
20260508135016 0 0.0 0.0 0.00 0.00 0.00 1018.6
20260508134514 0 0.0 0.0 0.00 0.00 0.00 1018.7
20260508134013 0 0.0 0.0 0.00 0.00 0.00 1018.8
20260508133512 0 0.0 0.0 0.00 0.00 0.00 1018.8
20260508133104 0 0.0 0.0 0.00 0.00 0.00 1018.8
20260508132549 0 0.0 0.0 0.00 0.00 0.00 1018.8
20260508132048 0 0.0 0.0 0.00 0.00 0.00 1018.7
20260508131547 0 0.0 0.0 0.00 0.00 0.00 1018.7
20260508131049 0 0.0 0.0 0.00 0.00 0.00 1018.8
20260508130546 0 0.0 0.0 0.00 0.00 0.00 1018.8
20260508130025 0 0.0 0.0 0.00 0.00 0.00 1018.7
20260508125523 0 0.0 0.0 0.00 0.00 0.00 1018.7
20260508125025 0 0.0 0.0 0.00 0.00 0.00 1018.6
20260508124526 0 0.0 0.0 0.00 0.00 0.00 1018.6
20260508124019 0 0.0 0.0 0.00 0.00 0.00 1018.6
20260508123518 0 0.0 0.0 0.00 0.00 0.00 1018.6
20260508123104 0 0.0 0.0 0.00 0.00 0.00 1018.5
20260508122557 0 0.0 0.0 0.00 0.00 0.00 1018.6
20260508122056 0 0.0 0.0 0.00 0.00 0.00 1018.6
20260508121559 0 0.0 0.0 0.00 0.00 0.00 1018.6
20260508121055 0 0.0 0.0 0.00 0.00 0.00 1018.5
20260508120556 0 0.0 0.0 0.00 0.00 0.00 1018.4
20260508120033 0 0.0 0.0 0.00 0.00 0.00 1018.4
20260508115532 0 0.0 0.0 0.00 0.00 0.00 1018.3
20260508115033 0 0.0 0.0 0.00 0.00 0.00 1018.3
20260508114531 0 0.0 0.0 0.00 0.00 0.00 1018.3
20260508114031 0 0.0 0.0 0.00 0.00 0.00 1018.2
20260508113527 0 0.0 0.0 0.00 0.00 0.00 1018.3
20260508113008 0 0.0 0.0 0.00 0.00 0.00 1018.2
20260508112507 0 0.0 0.0 0.00 0.00 0.00 1018.2
20260508112006 0 0.0 0.0 0.00 0.00 0.00 1018.2
20260508111506 0 0.0 0.0 0.00 0.00 0.00 1018.2
20260508111007 0 0.0 0.0 0.00 0.00 0.00 1018.1
20260508110507 0 0.0 0.0 0.00 0.00 0.00 1018.1
20260508110048 0 0.0 0.0 0.00 0.00 0.00 1018.2
20260508105548 0 0.0 0.0 0.00 0.00 0.00 1018.1
20260508105046 0 0.0 0.0 0.00 0.00 0.00 1018.1
20260508104550 0 0.0 0.0 0.00 0.00 0.00 1018.1
20260508104044 0 0.0 0.0 0.00 0.00 0.00 1018.1
20260508103542 0 0.0 0.0 0.00 0.00 0.00 1018.0
20260508103027 0 0.0 0.0 0.00 0.00 0.00 1017.9
20260508102522 0 0.0 0.0 0.00 0.00 0.00 1017.9
20260508102021 0 0.0 0.0 0.00 0.00 0.00 1017.8
20260508101522 0 0.0 0.0 0.00 0.00 0.00 1017.8
20260508101020 0 0.0 0.0 0.00 0.00 0.00 1017.7
20260508100517 0 0.0 0.0 0.00 0.00 0.00 1017.7
20260508100058 0 0.0 0.0 0.00 0.00 0.00 1017.7
20260508095557 0 0.0 0.0 0.00 0.00 0.00 1017.7
20260508095056 0 0.0 0.0 0.00 0.00 0.00 1017.6
20260508094605 0 0.0 0.0 0.00 0.00 0.00 1017.5
20260508094052 0 0.0 0.0 0.00 0.00 0.00 1017.4
20260508093551 0 0.0 0.0 0.00 0.00 0.00 1017.4
20260508093032 0 0.0 0.0 0.00 0.00 0.00 1017.3
20260508092531 0 0.0 0.0 0.00 0.00 0.00 1017.4
20260508092028 0 0.0 0.0 0.00 0.00 0.00 1017.3
20260508091543 0 0.0 0.0 0.00 0.00 0.00 1017.3
20260508091026 0 0.0 0.0 0.00 0.00 0.00 1017.4
20260508090524 0 0.0 0.0 0.00 0.00 0.00 1017.3
20260508090012 0 0.0 0.0 0.00 0.00 0.00 1017.3
20260508085504 0 0.0 0.0 0.00 0.00 0.00 1017.2
20260508085007 0 0.0 0.0 0.00 0.00 0.00 1017.3
20260508084502 0 0.0 0.0 0.00 0.00 0.00 1017.4
20260508084104 0 0.0 0.0 0.00 0.00 0.00 1017.4
20260508083600 0 0.0 0.0 0.00 0.00 0.00 1017.4
20260508083057 0 0.0 0.0 0.00 0.00 0.00 1017.4
20260508082539 0 0.0 0.0 0.00 0.00 0.00 1017.2
20260508082037 0 0.0 0.0 0.00 0.00 0.00 1017.3
20260508081542 0 0.0 0.0 0.00 0.00 0.00 1017.3
20260508081034 0 0.0 0.0 0.00 0.00 0.00 1017.3
20260508080533 0 0.0 0.0 0.00 0.00 0.00 1017.2
20260508080032 0 0.0 0.0 0.00 0.00 0.00 1017.1
20260508075513 0 0.0 0.0 0.00 0.00 0.00 1017.1
20260508075016 0 0.0 0.0 0.00 0.00 0.00 1017.1
20260508074509 0 0.0 0.0 0.00 0.00 0.00 1017.1
20260508074008 0 0.0 0.0 0.00 0.00 0.00 1017.1
20260508073507 0 0.0 0.0 0.00 0.00 0.00 1017.2
20260508073005 0 0.0 0.0 0.00 0.00 0.00 1017.1
20260508072546 0 0.0 0.0 0.00 0.00 0.00 1017.1
20260508072045 0 0.0 0.0 0.00 0.00 0.00 1017.2
20260508071547 0 0.0 0.0 0.00 0.00 0.00 1017.2
20260508071042 0 0.0 0.0 0.00 0.00 0.00 1017.3
20260508070541 0 0.0 0.0 0.00 0.00 0.00 1017.3
20260508070040 0 0.0 0.0 0.00 0.00 0.00 1017.3
20260508065521 0 0.0 0.0 0.00 0.00 0.00 1017.3
20260508065019 0 0.0 0.0 0.00 0.00 0.00 1017.2
20260508064527 0 0.0 0.0 0.00 0.00 0.00 1017.3
20260508064017 0 0.0 0.0 0.00 0.00 0.00 1017.3
20260508063518 45 58 0.0 0.0 0.00 0.00 0.00 1 1017.3
20260508063015 45 58 0.0 0.0 0.00 0.00 0.00 1 1017.2
20260508062554 46 58 0.0 0.0 0.00 0.00 0.00 1 1017.1
20260508062054 46 58 0.0 0.0 0.00 0.00 0.00 1 1017.2
20260508061553 46 58 0.0 0.0 0.00 0.00 0.00 1 1017.1
20260508061050 47 58 0.0 0.0 0.00 0.00 0.00 1 1017.1
20260508060548 47 58 0.0 0.0 0.00 0.00 0.00 1 1017.1
20260508060047 47 58 0.0 0.0 0.00 0.00 0.00 1 1017.1
20260508055528 47 58 0.0 0.0 0.00 0.00 0.00 1 1017.2
20260508055027 47 58 0.0 0.0 0.00 0.00 0.00 1 1017.2
20260508054525 47 58 0.0 0.0 0.00 0.00 0.00 1 1017.1
20260508054023 47 58 0.0 0.0 0.00 0.00 0.00 1 1017.3
20260508053523 47 58 0.0 0.0 0.00 0.00 0.00 1 1017.3
20260508053031 47 58 0.0 0.0 0.00 0.00 0.00 1 1017.4
20260508052503 47 58 0.0 0.0 0.00 0.00 0.00 1 1017.4
20260508052004 47 58 0.0 0.0 0.00 0.00 0.00 1 1017.4
20260508051620 48 58 0.0 0.0 0.00 0.00 0.00 1 1017.4
20260508051059 48 58 0.0 0.0 0.00 0.00 0.00 1 1017.5
20260508050557 48 58 0.0 0.0 0.00 0.00 0.00 1 1017.6
20260508050056 48 58 0.0 0.0 0.00 0.00 0.00 1 1017.6
20260508045536 48 58 0.0 0.0 0.00 0.00 0.00 1 1017.6
20260508045038 48 58 0.0 0.0 0.00 0.00 0.00 1 1017.4
20260508044534 48 58 0.0 0.0 0.00 0.00 0.00 1 1017.6
20260508044032 48 58 0.0 0.0 0.00 0.00 0.00 1 1017.6
20260508043531 48 58 0.0 0.0 0.00 0.00 0.00 1 1017.5
20260508043030 49 58 0.0 0.0 0.00 0.00 0.00 1 1017.5
20260508042510 49 58 0.0 0.0 0.00 0.00 0.00 1 1017.6
20260508042013 49 58 0.0 0.0 0.00 0.00 0.00 1 1017.7
20260508041511 49 58 0.0 0.0 0.00 0.00 0.00 1 1017.7
20260508041006 50 58 0.0 0.0 0.00 0.00 0.00 1 1017.7
20260508040508 50 58 0.0 0.0 0.00 0.00 0.00 1 1017.7
20260508040004 51 58 0.0 0.0 0.00 0.00 0.00 1 1017.8
20260508035543 52 58 0.0 0.0 0.00 0.00 0.00 1 1017.7
20260508035042 52 58 0.0 0.0 0.00 0.00 0.00 1 1017.6
20260508034542 53 58 0.0 0.0 0.00 0.00 0.00 1 1017.6
20260508034040 53 58 0.0 0.0 0.00 0.00 0.00 1 1017.6
20260508033538 53 58 0.0 0.0 0.00 0.00 0.00 1 1017.6
20260508033044 54 58 0.0 0.0 0.00 0.00 0.00 1 1017.5
20260508032518 54 58 0.0 0.0 0.00 0.00 0.00 1 1017.6
20260508032017 54 58 0.0 1.0 0.00 0.00 0.00 2 1017.6
20260508031517 55 344 0.0 1.0 0.00 0.00 0.00 3 1017.6
20260508031013 55 342 0.0 0.0 0.00 0.00 0.00 4 1017.7
20260508030512 55 93 0.0 0.0 0.00 0.00 0.00 7 1017.6
20260508030016 55 90 0.0 0.0 0.00 0.00 0.00 5 1017.6
20260508025610 55 92 0.0 0.0 0.00 0.00 0.00 5 1017.6
20260508025051 55 217 0.0 0.0 0.00 0.00 0.00 12 1017.5
20260508024550 55 216 0.0 0.0 0.00 0.00 0.00 11 1017.5
20260508024049 55 217 0.0 0.0 0.00 0.00 0.00 12 1017.4
20260508023547 55 91 0.0 1.0 0.00 0.00 0.00 19 1017.4
20260508023046 55 103 0.0 1.0 0.00 0.00 0.00 24 1017.4
20260508022545 54 106 0.0 1.0 0.00 0.00 0.00 27 1017.5
20260508022028 54 198 0.0 3.0 0.00 0.00 0.00 31 1017.5
20260508021532 54 60 0.0 1.0 0.00 0.00 0.00 33 1017.5
20260508021029 54 247 0.0 1.0 0.00 0.00 0.00 36 1017.6
20260508020523 54 235 0.0 2.0 0.00 0.00 0.00 40 1017.8
20260508020022 54 143 0.0 2.0 0.00 0.00 0.00 43 1017.9
20260508015521 54 260 0.0 3.0 0.00 0.00 0.00 43 1017.9
20260508015003 54 239 0.0 2.0 0.00 0.00 0.00 44 1018.0
20260508014508 54 248 0.0 3.0 0.00 0.00 0.00 46 1018.0
20260508014002 54 27 0.0 4.0 0.00 0.00 0.00 49 1018.0
20260508013504 55 250 1.0 4.0 0.00 0.00 0.00 48 1018.0
20260508013001 55 60 0.0 2.0 0.00 0.00 0.00 50 1018.1
20260508012604 55 233 0.0 3.0 0.00 0.00 0.00 48 1018.2
20260508012042 54 238 0.0 3.0 0.00 0.00 0.00 52 1018.3
20260508011548 55 225 0.0 3.0 0.00 0.00 0.00 51 1018.4
20260508011041 55 238 0.0 2.0 0.00 0.00 0.00 49 1018.5
20260508010540 55 242 0.0 3.0 0.00 0.00 0.00 50 1018.4
20260508010056 55 229 0.0 3.0 0.00 0.00 0.00 51 1018.4
20260508005539 55 233 1.0 3.0 0.00 0.00 0.00 51 1018.5
20260508005021 55 224 0.0 4.0 0.00 0.00 0.00 52 1018.5
20260508004520 55 245 0.0 4.0 0.00 0.00 0.00 52 1018.6
20260508004020 55 56 1.0 4.0 0.00 0.00 0.00 53 1018.6
20260508003519 55 60 0.0 5.0 0.00 0.00 0.00 51 1018.7
20260508003019 55 226 1.0 4.0 0.00 0.00 0.00 53 1018.9
20260508002519 55 280 0.0 2.0 0.00 0.00 0.00 52 1018.8
20260508002103 55 274 0.0 1.0 0.00 0.00 0.00 52 1018.9
20260508001603 55 255 0.0 2.0 0.00 0.00 0.00 52 1018.8
20260508001001 55 307 0.0 4.0 0.00 0.00 0.00 54 1018.7
20260508000601 56 236 1.0 4.0 0.00 0.00 0.00 54 1018.6
20260508000059 56 241 0.0 2.0 0.00 0.00 0.00 52 1018.6
20260507235558 56 345 0.0 3.0 0.00 0.00 0.00 51 1018.7
20260507235040 56 46 0.0 4.0 0.00 0.00 0.00 52 1018.7
20260507234540 56 297 0.0 4.0 0.00 0.00 0.00 53 1018.8
20260507234040 56 241 1.0 4.0 0.00 0.00 0.00 54 1018.8
20260507233540 56 120 1.0 5.0 0.00 0.00 0.00 53 1018.8
20260507233041 56 248 0.0 2.0 0.00 0.00 0.00 54 1018.9
20260507232538 56 298 0.0 2.0 0.00 0.00 0.00 54 1018.9
20260507232021 56 48 0.0 2.0 0.00 0.00 0.00 55 1019.0
20260507231520 55 283 0.0 2.0 0.00 0.00 0.00 55 1019.1
20260507231019 56 249 0.0 2.0 0.00 0.00 0.00 55 1019.2
20260507230518 56 264 0.0 2.0 0.00 0.00 0.00 55 1019.2
20260507230027 56 314 0.0 2.0 0.00 0.00 0.00 56 1019.2
20260507225517 56 262 0.0 5.0 0.00 0.00 0.00 56 1019.3
20260507225004 56 242 0.0 5.0 0.00 0.00 0.00 56 1019.4
20260507224508 56 256 0.0 5.0 0.00 0.00 0.00 56 1019.5
20260507224002 56 222 2.0 6.0 0.00 0.00 0.00 56 1019.5
20260507223502 55 319 0.0 6.0 0.00 0.00 0.00 56 1019.6
20260507223002 55 262 0.0 6.0 0.00 0.00 0.00 56 1019.6
20260507222501 56 209 0.0 5.0 0.00 0.00 0.00 56 1019.6
20260507222100 56 218 2.0 5.0 0.00 0.00 0.00 56 1019.7
20260507222000 56 256 0.0 4.0 0.00 0.00 0.00 56 1019.7
20260507221600 55 217 1.0 6.0 0.00 0.00 0.00 56 1019.7
20260507221059 56 218 2.0 6.0 0.00 0.00 0.00 56 1019.8
20260507220557 56 251 1.0 6.0 0.00 0.00 0.00 56 1019.8
20260507220057 56 229 0.0 4.0 0.00 0.00 0.00 56 1019.8
20260507215557 56 263 1.0 5.0 0.00 0.00 0.00 56 1019.9
20260507215100 56 263 1.0 5.0 0.00 0.00 0.00 56 1019.9
20260507214559 57 243 1.0 6.0 0.00 0.00 0.00 56 1020.0
20260507214057 57 219 3.0 6.0 0.00 0.00 0.00 56 1019.9
20260507213556 57 226 1.0 5.0 0.00 0.00 0.00 56 1019.9
20260507213129 57 219 0.0 5.0 0.00 0.00 0.00 55 1019.9
20260507212558 57 244 0.0 2.0 0.00 0.00 0.00 55 1019.8
20260507212054 57 239 0.0 3.0 0.00 0.00 0.00 55 1019.9
20260507211555 56 236 1.0 6.0 0.00 0.00 0.00 55 1019.9
20260507211051 56 273 1.0 6.0 0.00 0.00 0.00 56 1019.8
20260507210554 56 252 0.0 3.0 0.00 0.00 0.00 56 1020.0
20260507210050 56 262 0.0 5.0 0.00 0.00 0.00 55 1020.0
20260507205547 56 229 2.0 6.0 0.00 0.00 0.00 55 1020.1
20260507205029 56 228 1.0 6.0 0.00 0.00 0.00 56 1020.1
20260507204533 56 226 1.0 5.0 0.00 0.00 0.00 55 1020.0
20260507204025 56 245 0.0 5.0 0.00 0.00 0.00 55 1020.0
20260507203528 56 235 1.0 5.0 0.00 0.00 0.00 56 1020.1
20260507203033 57 211 1.0 7.0 0.00 0.00 0.00 55 1020.1
20260507202520 57 200 3.0 7.0 0.00 0.00 0.00 55 1020.2
20260507202001 57 217 2.0 5.0 0.00 0.00 0.00 55 1020.2
20260507201621 57 228 1.0 5.0 0.00 0.00 0.00 55 1020.2
20260507201059 57 245 1.0 5.0 0.00 0.00 0.00 55 1020.2
20260507200557 56 238 2.0 6.0 0.00 0.00 0.00 55 1020.2
20260507200108 56 218 1.0 4.0 0.00 0.00 0.00 55 1020.2
20260507195558 56 211 1.0 3.0 0.00 0.00 0.00 55 1020.2
20260507195053 56 243 0.0 6.0 0.00 0.00 0.00 55 1020.3
20260507194535 57 228 0.0 6.0 0.00 0.00 0.00 54 1020.3
20260507194033 56 257 2.0 6.0 0.00 0.00 0.00 55 1020.4